Location: ???? ?????????
(31.1304°N, 31.7111°E)
Time: 17:48:05
(UTC+00:00)

Cosmos 968 Rocket - Pass Details

Date: 29 October 2020
Orbit: 741 x 770 km, 74.0° (Epoch: 29 November)

Event Time Altitude Azimuth Distance (km) Brightness Sun altitude
Rises 16:41:19 0° 340° (NNW) 3,220 6.9 -20.7°
Reaches altitude 10° 16:43:42 10° 338° (NNW) 2,287 6.2 -21.2°
Maximum altitude 16:48:51 69° 256° (WSW) 804 3.7 -22.3°
Drops below altitude 10° 16:53:55 10° 174° (S) 2,255 5.9 -23.4°
Sets 16:56:16 0° 171° (S) 3,172 6.6 -23.9°
